AMX680 MMMX-MSLP

Flight info

Callsign AMX680
Flight time 1h 41m
Altitude 37000
Route TEVOS UT113 IZT J13 TAP UA317 AMESA
Aircraft B38M/M-SDE1FGHILORVWXY/HB1

Departure

Time 2026-04-25 09:12
Airport Mexico City Benito Juárez International Airport (MMMX)

Arrival

Time 2026-04-25 10:54
Airport El Salvador International Airport Saint Óscar Arnulfo Romero y Galdámez (MSLP)
Time Latitude Longitude Altitude Speed Heading
2026-04-25 08:52 19.42333 -99.07857 7305 ft 0 kts 59°
2026-04-25 09:05 19.42321 -99.07876 7314 ft 4 kts 46°
2026-04-25 09:05 19.42300 -99.07891 7304 ft 4 kts 10°
2026-04-25 09:05 19.42279 -99.07886 7305 ft 3 kts 312°
2026-04-25 09:05 19.42277 -99.07884 7305 ft 1 kts 309°
2026-04-25 09:09 19.42294 -99.07905 7305 ft 9 kts 311°
2026-04-25 09:09 19.42358 -99.07984 7305 ft 19 kts 310°
2026-04-25 09:09 19.42474 -99.08069 7305 ft 21 kts 329°
2026-04-25 09:09 19.42602 -99.08148 7305 ft 21 kts 329°
2026-04-25 09:10 19.42725 -99.08221 7305 ft 15 kts 341°
2026-04-25 09:10 19.42794 -99.08212 7305 ft 0 kts 32°
2026-04-25 09:10 19.42794 -99.08211 7305 ft 1 kts 32°
2026-04-25 09:10 19.42843 -99.08181 7305 ft 18 kts 30°
2026-04-25 09:11 19.43129 -99.07820 7307 ft 66 kts 59°
2026-04-25 09:11 19.43444 -99.07257 7305 ft 110 kts 59°
2026-04-25 09:11 19.43905 -99.06437 7305 ft 148 kts 59°
2026-04-25 09:12 19.44488 -99.05398 7307 ft 179 kts 59°
2026-04-25 09:12 19.45125 -99.04258 7703 ft 179 kts 56°
2026-04-25 09:12 19.45846 -99.03155 8109 ft 188 kts 56°
2026-04-25 09:12 19.46580 -99.01954 8548 ft 197 kts 58°
2026-04-25 09:13 19.47310 -99.00737 9055 ft 195 kts 58°
2026-04-25 09:13 19.48056 -98.99495 9364 ft 207 kts 57°
2026-04-25 09:13 19.48848 -98.98173 9657 ft 223 kts 57°
2026-04-25 09:13 19.49601 -98.96671 9973 ft 240 kts 71°
2026-04-25 09:14 19.49737 -98.94862 10201 ft 260 kts 102°
2026-04-25 09:14 19.48939 -98.93096 10577 ft 270 kts 133°
2026-04-25 09:14 19.47429 -98.91899 11195 ft 277 kts 150°
2026-04-25 09:14 19.45765 -98.90786 11757 ft 287 kts 146°
2026-04-25 09:15 19.44102 -98.89617 12537 ft 288 kts 146°
2026-04-25 09:15 19.42421 -98.88423 13249 ft 294 kts 145°
2026-04-25 09:15 19.40716 -98.87207 14033 ft 297 kts 145°
2026-04-25 09:15 19.38991 -98.85973 14712 ft 301 kts 145°
2026-04-25 09:16 19.37245 -98.84723 15414 ft 305 kts 146°
2026-04-25 09:16 19.35476 -98.83457 16104 ft 308 kts 146°
2026-04-25 09:16 19.33588 -98.82339 16635 ft 318 kts 162°
2026-04-25 09:16 19.31361 -98.82001 16981 ft 332 kts 183°
2026-04-25 09:17 19.26517 -98.82266 17532 ft 365 kts 184°
2026-04-25 09:17 19.23961 -98.82409 17794 ft 379 kts 184°
2026-04-25 09:17 19.21314 -98.82562 18375 ft 382 kts 184°
2026-04-25 09:18 19.18650 -98.82720 18897 ft 385 kts 184°
2026-04-25 09:18 19.15961 -98.82879 19376 ft 389 kts 184°
2026-04-25 09:18 19.13248 -98.83039 19889 ft 392 kts 184°
2026-04-25 09:18 19.10507 -98.83202 20370 ft 396 kts 184°
2026-04-25 09:19 19.07746 -98.83365 20866 ft 399 kts 184°
2026-04-25 09:19 19.04957 -98.83530 21345 ft 403 kts 184°
2026-04-25 09:19 19.02146 -98.83697 21824 ft 407 kts 185°
2026-04-25 09:19 18.99306 -98.83864 22285 ft 410 kts 185°
2026-04-25 09:20 18.96446 -98.84034 22762 ft 414 kts 185°
2026-04-25 09:20 18.93564 -98.84295 23215 ft 416 kts 192°
2026-04-25 09:20 18.90697 -98.84794 23664 ft 419 kts 191°
2026-04-25 09:20 18.87802 -98.85269 24060 ft 422 kts 191°
2026-04-25 09:21 18.84894 -98.85732 24511 ft 423 kts 191°
2026-04-25 09:21 18.81977 -98.86189 24930 ft 425 kts 191°
2026-04-25 09:21 18.79044 -98.86646 25341 ft 427 kts 191°
2026-04-25 09:21 18.76098 -98.87104 25772 ft 429 kts 191°
2026-04-25 09:22 18.73140 -98.87563 26194 ft 430 kts 191°
2026-04-25 09:22 18.70166 -98.88025 26598 ft 432 kts 191°
2026-04-25 09:22 18.67217 -98.88482 26993 ft 434 kts 191°
2026-04-25 09:22 18.64223 -98.88947 27395 ft 436 kts 192°
2026-04-25 09:23 18.61213 -98.89422 27776 ft 438 kts 192°
2026-04-25 09:23 18.58191 -98.89904 28148 ft 440 kts 192°
2026-04-25 09:23 18.55152 -98.90388 28516 ft 442 kts 192°
2026-04-25 09:23 18.52211 -98.90856 28864 ft 444 kts 192°
2026-04-25 09:24 18.49123 -98.91253 29028 ft 451 kts 184°
2026-04-25 09:24 18.45998 -98.90908 29535 ft 456 kts 169°
2026-04-25 09:24 18.43011 -98.89727 29911 ft 464 kts 155°
2026-04-25 09:24 18.40336 -98.87779 30193 ft 473 kts 140°
2026-04-25 09:25 18.38178 -98.85141 30504 ft 478 kts 127°
2026-04-25 09:25 18.36241 -98.82277 30743 ft 482 kts 127°
2026-04-25 09:25 18.34959 -98.80366 30904 ft 484 kts 127°
2026-04-25 09:25 18.32398 -98.76503 31310 ft 486 kts 126°
2026-04-25 09:26 18.30473 -98.73573 31578 ft 488 kts 126°
2026-04-25 09:26 18.28541 -98.70625 31861 ft 490 kts 126°
2026-04-25 09:26 18.26598 -98.67662 32147 ft 493 kts 126°
2026-04-25 09:26 18.24649 -98.64690 32419 ft 495 kts 126°
2026-04-25 09:27 18.23324 -98.62671 32616 ft 496 kts 126°
2026-04-25 09:27 18.21360 -98.59680 32879 ft 498 kts 126°
2026-04-25 09:27 18.19413 -98.56715 33161 ft 499 kts 126°
2026-04-25 09:27 18.17441 -98.53713 33514 ft 499 kts 126°
2026-04-25 09:28 18.15473 -98.50708 33894 ft 498 kts 125°
2026-04-25 09:28 18.13547 -98.47684 34225 ft 498 kts 124°
2026-04-25 09:28 18.11623 -98.44663 34573 ft 496 kts 124°
2026-04-25 09:28 18.09698 -98.41648 34933 ft 495 kts 124°
2026-04-25 09:29 18.07783 -98.38651 35261 ft 494 kts 124°
2026-04-25 09:29 18.05870 -98.35659 35575 ft 492 kts 124°
2026-04-25 09:29 18.03959 -98.32671 35885 ft 492 kts 124°
2026-04-25 09:29 18.02052 -98.29693 36185 ft 491 kts 124°
2026-04-25 09:30 18.00149 -98.26720 36497 ft 490 kts 124°
2026-04-25 09:30 17.98251 -98.23757 36789 ft 489 kts 124°
2026-04-25 09:30 17.96352 -98.20793 36945 ft 489 kts 124°
2026-04-25 09:31 17.92594 -98.14934 36951 ft 486 kts 124°
2026-04-25 09:31 17.88820 -98.09054 36954 ft 485 kts 124°
2026-04-25 09:32 17.85048 -98.03182 36958 ft 485 kts 124°
2026-04-25 09:32 17.81278 -97.97318 36964 ft 485 kts 124°
2026-04-25 09:33 17.77509 -97.91461 36967 ft 484 kts 124°
2026-04-25 09:33 17.73738 -97.85607 36975 ft 484 kts 124°
2026-04-25 09:34 17.69970 -97.79770 36981 ft 483 kts 126°
2026-04-25 09:34 17.65969 -97.74110 36986 ft 483 kts 127°
2026-04-25 09:35 17.61990 -97.68448 36993 ft 482 kts 127°
2026-04-25 09:35 17.58009 -97.62782 36991 ft 482 kts 127°
2026-04-25 09:36 17.54032 -97.57125 36996 ft 481 kts 127°
2026-04-25 09:36 17.50057 -97.51476 36997 ft 481 kts 127°
2026-04-25 09:37 17.46084 -97.45833 37009 ft 481 kts 127°
2026-04-25 09:37 17.42317 -97.40094 37006 ft 481 kts 125°
2026-04-25 09:38 17.38519 -97.34317 37003 ft 481 kts 125°
2026-04-25 09:38 17.34720 -97.28549 37000 ft 481 kts 125°
2026-04-25 09:39 17.30919 -97.22784 37000 ft 481 kts 125°
2026-04-25 09:39 17.27117 -97.17022 37000 ft 481 kts 125°
2026-04-25 09:40 17.21398 -97.08402 37004 ft 480 kts 126°
2026-04-25 09:40 17.17503 -97.02724 36997 ft 480 kts 126°
2026-04-25 09:41 17.13615 -96.97042 36993 ft 480 kts 126°
2026-04-25 09:41 17.09728 -96.91363 36994 ft 480 kts 126°
2026-04-25 09:42 17.05837 -96.85685 36997 ft 480 kts 126°
2026-04-25 09:42 17.01976 -96.80052 36994 ft 480 kts 126°
2026-04-25 09:43 16.98106 -96.74354 36984 ft 481 kts 121°
2026-04-25 09:43 16.96727 -96.71195 36989 ft 479 kts 108°
2026-04-25 09:43 16.95680 -96.67874 36973 ft 481 kts 108°
2026-04-25 09:44 16.93592 -96.61241 36980 ft 481 kts 108°
2026-04-25 09:44 16.91545 -96.54585 36977 ft 481 kts 108°
2026-04-25 09:45 16.89505 -96.47942 36973 ft 481 kts 108°
2026-04-25 09:45 16.87463 -96.41295 36968 ft 480 kts 108°
2026-04-25 09:46 16.85418 -96.34655 36966 ft 480 kts 108°
2026-04-25 09:46 16.83371 -96.28018 36960 ft 480 kts 108°
2026-04-25 09:47 16.81336 -96.21427 36947 ft 480 kts 108°
2026-04-25 09:47 16.79288 -96.14801 36950 ft 480 kts 108°
2026-04-25 09:48 16.77241 -96.08188 36936 ft 479 kts 108°
2026-04-25 09:48 16.75193 -96.01577 36925 ft 478 kts 108°
2026-04-25 09:49 16.73144 -95.94974 36919 ft 478 kts 108°
2026-04-25 09:49 16.71095 -95.88378 36914 ft 478 kts 108°
2026-04-25 09:50 16.69042 -95.81778 36900 ft 478 kts 108°
2026-04-25 09:50 16.66987 -95.75182 36893 ft 478 kts 108°
2026-04-25 09:51 16.64930 -95.68590 36897 ft 478 kts 108°
2026-04-25 09:51 16.62870 -95.61996 36887 ft 478 kts 108°
2026-04-25 09:52 16.60823 -95.55451 36884 ft 478 kts 108°
2026-04-25 09:52 16.58763 -95.48869 36876 ft 478 kts 108°
2026-04-25 09:53 16.56700 -95.42288 36876 ft 477 kts 108°
2026-04-25 09:53 16.54633 -95.35705 36870 ft 477 kts 108°
2026-04-25 09:54 16.52567 -95.29129 36858 ft 477 kts 108°
2026-04-25 09:54 16.50497 -95.22552 36858 ft 477 kts 108°
2026-04-25 09:55 16.48441 -95.16022 36857 ft 477 kts 108°
2026-04-25 09:55 16.46261 -95.09511 36841 ft 475 kts 118°
2026-04-25 09:56 16.42814 -95.03642 36851 ft 475 kts 122°
2026-04-25 09:56 16.39316 -94.97807 36852 ft 475 kts 123°
2026-04-25 09:57 16.35796 -94.91982 36857 ft 475 kts 123°
2026-04-25 09:57 16.32270 -94.86157 36857 ft 475 kts 123°
2026-04-25 09:58 16.28743 -94.80333 36858 ft 475 kts 123°
2026-04-25 09:58 16.25216 -94.74513 36855 ft 476 kts 123°
2026-04-25 09:59 16.21702 -94.68722 36859 ft 476 kts 123°
2026-04-25 09:59 16.18165 -94.62896 36862 ft 476 kts 123°
2026-04-25 10:00 16.14625 -94.57069 36864 ft 476 kts 123°
2026-04-25 10:00 16.11079 -94.51239 36868 ft 476 kts 123°
2026-04-25 10:01 16.07537 -94.45418 36869 ft 476 kts 123°
2026-04-25 10:01 16.03991 -94.39596 36872 ft 476 kts 123°
2026-04-25 10:02 16.00444 -94.33778 36870 ft 477 kts 123°
2026-04-25 10:02 15.96894 -94.27959 36873 ft 477 kts 123°
2026-04-25 10:03 15.93363 -94.22176 36871 ft 477 kts 123°
2026-04-25 10:03 15.89805 -94.16352 36874 ft 478 kts 123°
2026-04-25 10:04 15.86240 -94.10523 36876 ft 478 kts 123°
2026-04-25 10:04 15.82673 -94.04693 36876 ft 478 kts 123°
2026-04-25 10:05 15.79106 -93.98870 36876 ft 478 kts 123°
2026-04-25 10:05 15.75537 -93.93045 36882 ft 478 kts 123°
2026-04-25 10:06 15.71968 -93.87227 36879 ft 477 kts 123°
2026-04-25 10:06 15.68425 -93.81454 36878 ft 477 kts 123°
2026-04-25 10:07 15.64858 -93.75648 36882 ft 477 kts 123°
2026-04-25 10:07 15.61291 -93.69847 36881 ft 477 kts 123°
2026-04-25 10:08 15.57727 -93.64053 36883 ft 477 kts 123°
2026-04-25 10:08 15.54157 -93.58256 36883 ft 477 kts 123°
2026-04-25 10:09 15.50587 -93.52461 36885 ft 477 kts 123°
2026-04-25 10:09 15.47013 -93.46665 36884 ft 477 kts 124°
2026-04-25 10:10 15.43439 -93.40874 36887 ft 477 kts 124°
2026-04-25 10:10 15.39857 -93.35074 36886 ft 477 kts 124°
2026-04-25 10:11 15.36276 -93.29281 36886 ft 477 kts 123°
2026-04-25 10:11 15.32696 -93.23493 36886 ft 477 kts 123°
2026-04-25 10:12 15.29138 -93.17746 36886 ft 477 kts 123°
2026-04-25 10:13 15.23757 -93.09061 36886 ft 477 kts 123°
2026-04-25 10:13 15.20171 -93.03278 36886 ft 477 kts 124°
2026-04-25 10:14 15.16582 -92.97496 36889 ft 477 kts 123°
2026-04-25 10:14 15.12991 -92.91715 36894 ft 478 kts 124°
2026-04-25 10:15 15.09999 -92.86900 36891 ft 478 kts 124°
2026-04-25 10:15 15.06400 -92.81113 36896 ft 478 kts 124°
2026-04-25 10:16 15.02801 -92.75330 36899 ft 478 kts 124°
2026-04-25 10:16 14.99195 -92.69546 36903 ft 478 kts 124°
2026-04-25 10:17 14.95584 -92.63756 36907 ft 479 kts 124°
2026-04-25 10:17 14.91971 -92.57968 36911 ft 479 kts 124°
2026-04-25 10:18 14.88373 -92.52207 36913 ft 480 kts 124°
2026-04-25 10:18 14.84752 -92.46414 36916 ft 479 kts 124°
2026-04-25 10:19 14.81132 -92.40627 36919 ft 479 kts 124°
2026-04-25 10:19 14.77697 -92.34724 36930 ft 480 kts 121°
2026-04-25 10:20 14.74359 -92.28763 36928 ft 479 kts 121°
2026-04-25 10:20 14.71001 -92.22806 36930 ft 480 kts 121°
2026-04-25 10:21 14.67643 -92.16856 36934 ft 480 kts 121°
2026-04-25 10:21 14.64342 -92.10908 36935 ft 480 kts 121°
2026-04-25 10:22 14.61028 -92.04921 36939 ft 480 kts 121°
2026-04-25 10:22 14.57711 -91.98937 36943 ft 480 kts 121°
2026-04-25 10:23 14.54385 -91.92941 36945 ft 480 kts 121°
2026-04-25 10:23 14.51061 -91.86952 36950 ft 481 kts 121°
2026-04-25 10:24 14.47737 -91.80970 36947 ft 480 kts 121°
2026-04-25 10:24 14.44413 -91.74990 36951 ft 480 kts 121°
2026-04-25 10:25 14.41086 -91.69011 36949 ft 481 kts 121°
2026-04-25 10:25 14.37756 -91.63029 36956 ft 480 kts 121°
2026-04-25 10:26 14.34448 -91.57093 36953 ft 481 kts 121°
2026-04-25 10:26 14.31114 -91.51114 36955 ft 481 kts 121°
2026-04-25 10:27 14.27780 -91.45139 36953 ft 481 kts 121°
2026-04-25 10:27 14.24443 -91.39163 36956 ft 481 kts 121°
2026-04-25 10:28 14.21129 -91.33233 36958 ft 481 kts 121°
2026-04-25 10:28 14.17786 -91.27203 36954 ft 481 kts 121°
2026-04-25 10:29 14.14473 -91.21210 36956 ft 481 kts 121°
2026-04-25 10:29 14.11160 -91.15220 36962 ft 481 kts 121°
2026-04-25 10:30 14.07863 -91.09266 36959 ft 481 kts 121°
2026-04-25 10:30 14.04546 -91.03279 36785 ft 481 kts 121°
2026-04-25 10:30 14.02893 -91.00297 36147 ft 479 kts 121°
2026-04-25 10:31 14.01234 -90.97306 35355 ft 482 kts 121°
2026-04-25 10:31 13.99568 -90.94303 34642 ft 484 kts 121°
2026-04-25 10:31 13.97900 -90.91297 34059 ft 482 kts 121°
2026-04-25 10:31 13.96240 -90.88306 33456 ft 479 kts 121°
2026-04-25 10:32 13.94593 -90.85339 32860 ft 476 kts 121°
2026-04-25 10:32 13.93170 -90.82274 32199 ft 475 kts 108°
2026-04-25 10:32 13.92269 -90.79052 31635 ft 472 kts 107°
2026-04-25 10:32 13.91334 -90.75834 31151 ft 467 kts 106°
2026-04-25 10:33 13.90420 -90.72638 30628 ft 463 kts 106°
2026-04-25 10:33 13.89518 -90.69460 30070 ft 461 kts 105°
2026-04-25 10:33 13.88623 -90.66300 29417 ft 459 kts 105°
2026-04-25 10:33 13.87733 -90.63157 28843 ft 455 kts 105°
2026-04-25 10:34 13.86852 -90.60047 28313 ft 450 kts 105°
2026-04-25 10:34 13.85980 -90.56972 27786 ft 446 kts 105°
2026-04-25 10:34 13.85116 -90.53924 27247 ft 442 kts 105°
2026-04-25 10:34 13.84258 -90.50902 26718 ft 439 kts 105°
2026-04-25 10:35 13.83406 -90.47901 26190 ft 435 kts 105°
2026-04-25 10:35 13.82559 -90.44919 25666 ft 432 kts 105°
2026-04-25 10:35 13.81718 -90.41959 25147 ft 430 kts 105°
2026-04-25 10:35 13.80881 -90.39018 24629 ft 427 kts 104°
2026-04-25 10:36 13.80049 -90.36094 24125 ft 425 kts 104°
2026-04-25 10:36 13.79221 -90.33183 23617 ft 423 kts 104°
2026-04-25 10:36 13.78396 -90.30325 22937 ft 423 kts 105°
2026-04-25 10:36 13.77562 -90.27438 22411 ft 419 kts 105°
2026-04-25 10:37 13.76737 -90.24581 21935 ft 414 kts 105°
2026-04-25 10:37 13.75922 -90.21759 21443 ft 410 kts 105°
2026-04-25 10:37 13.75113 -90.18962 20958 ft 406 kts 105°
2026-04-25 10:37 13.74313 -90.16192 20470 ft 403 kts 105°
2026-04-25 10:38 13.73515 -90.13435 19983 ft 400 kts 105°
2026-04-25 10:38 13.72730 -90.10699 19454 ft 398 kts 105°
2026-04-25 10:38 13.71952 -90.07968 18950 ft 397 kts 105°
2026-04-25 10:38 13.71176 -90.05250 18482 ft 394 kts 105°
2026-04-25 10:39 13.70407 -90.02553 17965 ft 392 kts 105°
2026-04-25 10:39 13.69640 -89.99870 17440 ft 389 kts 105°
2026-04-25 10:39 13.68881 -89.97217 16960 ft 385 kts 105°
2026-04-25 10:39 13.68130 -89.94587 16490 ft 381 kts 105°
2026-04-25 10:40 13.67385 -89.91986 16025 ft 377 kts 105°
2026-04-25 10:40 13.66648 -89.89409 15561 ft 374 kts 105°
2026-04-25 10:40 13.65918 -89.86859 15154 ft 369 kts 105°
2026-04-25 10:40 13.65198 -89.84345 14752 ft 364 kts 105°
2026-04-25 10:41 13.64485 -89.81858 14315 ft 361 kts 105°
2026-04-25 10:41 13.63777 -89.79387 13867 ft 359 kts 105°
2026-04-25 10:41 13.63074 -89.76936 13360 ft 357 kts 105°
2026-04-25 10:41 13.62375 -89.74497 12889 ft 354 kts 105°
2026-04-25 10:42 13.61681 -89.72080 12394 ft 352 kts 105°
2026-04-25 10:42 13.60991 -89.69674 11957 ft 348 kts 105°
2026-04-25 10:42 13.60319 -89.67335 11552 ft 344 kts 105°
2026-04-25 10:42 13.59646 -89.64990 11119 ft 341 kts 105°
2026-04-25 10:43 13.58976 -89.62659 10723 ft 337 kts 106°
2026-04-25 10:43 13.58324 -89.60390 10539 ft 326 kts 105°
2026-04-25 10:43 13.57692 -89.58192 10366 ft 315 kts 105°
2026-04-25 10:43 13.57081 -89.56068 10196 ft 305 kts 105°
2026-04-25 10:44 13.56488 -89.54008 9941 ft 298 kts 105°
2026-04-25 10:44 13.55900 -89.51964 9551 ft 297 kts 106°
2026-04-25 10:44 13.55315 -89.49934 9152 ft 296 kts 106°
2026-04-25 10:44 13.54674 -89.47934 8753 ft 294 kts 116°
2026-04-25 10:45 13.53425 -89.46297 8329 ft 293 kts 142°
2026-04-25 10:45 13.51688 -89.45232 7966 ft 290 kts 153°
2026-04-25 10:45 13.49924 -89.44253 7664 ft 286 kts 151°
2026-04-25 10:45 13.48226 -89.43214 7455 ft 283 kts 147°
2026-04-25 10:46 13.46572 -89.42057 6930 ft 294 kts 146°
2026-04-25 10:46 13.44890 -89.40809 6313 ft 303 kts 144°
2026-04-25 10:46 13.43141 -89.39568 5654 ft 308 kts 154°
2026-04-25 10:46 13.41130 -89.38824 5151 ft 307 kts 169°
2026-04-25 10:47 13.39040 -89.38492 4798 ft 302 kts 173°
2026-04-25 10:47 13.37021 -89.37968 4410 ft 300 kts 155°
2026-04-25 10:47 13.35431 -89.36640 4170 ft 293 kts 127°
2026-04-25 10:47 13.34602 -89.34817 4043 ft 282 kts 102°
2026-04-25 10:48 13.34563 -89.32862 3894 ft 270 kts 79°
2026-04-25 10:48 13.34973 -89.31304 3769 ft 261 kts 70°
2026-04-25 10:48 13.35567 -89.29586 3653 ft 250 kts 69°
2026-04-25 10:48 13.36153 -89.27935 3472 ft 243 kts 69°
2026-04-25 10:49 13.36724 -89.26328 3296 ft 236 kts 69°
2026-04-25 10:49 13.37094 -89.25287 3165 ft 233 kts 69°
2026-04-25 10:49 13.37826 -89.23227 2903 ft 225 kts 69°
2026-04-25 10:49 13.38349 -89.21753 2684 ft 216 kts 69°
2026-04-25 10:50 13.38855 -89.20328 2437 ft 209 kts 69°
2026-04-25 10:50 13.39343 -89.18956 2247 ft 199 kts 69°
2026-04-25 10:50 13.39780 -89.17723 2222 ft 173 kts 69°
2026-04-25 10:50 13.40197 -89.16550 1958 ft 175 kts 69°
2026-04-25 10:51 13.40608 -89.15390 1509 ft 170 kts 69°
2026-04-25 10:51 13.40998 -89.14292 1294 ft 141 kts 69°
2026-04-25 10:51 13.41321 -89.13383 1180 ft 142 kts 69°
2026-04-25 10:51 13.41660 -89.12427 973 ft 136 kts 69°
2026-04-25 10:52 13.42001 -89.11465 696 ft 146 kts 69°
2026-04-25 10:52 13.42333 -89.10488 668 ft 147 kts 71°
2026-04-25 10:52 13.42673 -89.09520 562 ft 142 kts 67°
2026-04-25 10:52 13.43024 -89.08562 406 ft 145 kts 69°
2026-04-25 10:53 13.43375 -89.07591 235 ft 145 kts 69°
2026-04-25 10:53 13.43720 -89.06622 100 ft 141 kts 69°
2026-04-25 10:53 13.43989 -89.05859 94 ft 114 kts 70°
2026-04-25 10:53 13.44189 -89.05300 97 ft 55 kts 71°
2026-04-25 10:54 13.44280 -89.05042 99 ft 34 kts 70°
2026-04-25 10:54 13.44336 -89.04887 101 ft 34 kts 70°
2026-04-25 10:54 13.44459 -89.04826 97 ft 15 kts 339°
2026-04-25 10:54 13.44527 -89.04886 95 ft 10 kts 264°
2026-04-25 10:55 13.44499 -89.04962 97 ft 13 kts 249°
2026-04-25 10:55 13.44461 -89.05066 96 ft 19 kts 249°
2026-04-25 10:55 13.44405 -89.05220 96 ft 27 kts 252°
2026-04-25 10:55 13.44363 -89.05359 94 ft 13 kts 282°
2026-04-25 10:56 13.44417 -89.05425 94 ft 13 kts 278°
2026-04-25 10:56 13.44387 -89.05529 94 ft 18 kts 250°
2026-04-25 10:56 13.44365 -89.05602 94 ft 2 kts 286°
2026-04-25 10:56 13.44391 -89.05620 94 ft 9 kts 339°
2026-04-25 10:57 13.44431 -89.05636 96 ft 0 kts 339°